Welcome to the New NWS' Forecast!
Most changes are behind the scenes, but click here for differences you might notice.
Latest weather observations around

Norwood, Norwood Memorial Airport (KOWD)

Using English Units (Switch to International System of Units)
Date/ Time (EDT) Wind (mph) Vis. (mi) Weather Sky Cond. Temp (°F) Rel. Humidity Wind Chill (°F) Heat Index (°F) Pressure Precip. (in)
Air Dwpt 6 hour Altimeter (inHg) Sea level (inHg) 1 hr 3 hr 6 hr
Max Min
Oct 17 23:53 W 9 10 Clear   45 34     65% 40   29.96 29.96      
Oct 17 22:53 W 9 10 Clear CLR 46 37     71% 41   29.94 29.94      
Oct 17 21:53 WSW 10 10 Clear   47 38     71% 42   29.92 29.92      
Oct 17 20:53 W 10 10 Clear CLR 48 40     73% 43   29.9 29.9      
Oct 17 19:53 W 9 10 Clear CLR 48 43     83% 44   29.89 29.88     0
Oct 17 18:53 WSW 7 10 Mostly Cloudy BKN110 49 45     86% 46   29.86 29.85 0    
Oct 17 17:53 W 11 10 Light Rain BKN045 OVC060 50 44     80%     29.84 29.83 0    
Oct 17 16:53 W 16 10 Mostly Clear FEW070 FEW120 61 35     38%     29.77 29.76      
Oct 17 15:53 WSW 9 10 Mostly Clear FEW065 64 38     38%     29.73 29.73      
Oct 17 14:53 W 17 10 Mostly Cloudy BKN070 62 36     38%     29.75 29.75      
Oct 17 13:53 SW 15 10 Clear CLR 64 40     41%     29.75 29.75      
Oct 17 12:53 SSW 13 10 Clear CLR 62 40     44%     29.78 29.78      
Oct 17 11:53 SSW 10 10 Clear CLR 60 39     46%     29.82 29.82      
Oct 17 10:53 WSW 9 10 Clear CLR 57 38     49%     29.86 29.86      
Oct 17 09:53 WSW 6 10 Clear CLR 53 41     63%     29.88 29.88      
Oct 17 08:53 SW 7 10 Clear CLR 47 39     74% 44   29.89 29.89      
Oct 17 06:53 Calm 10 Clear CLR 36 33     89%     29.92 29.91      
Oct 17 05:53 Calm 10 Clear CLR 35 33     92%     29.94 29.93      
Oct 17 05:46 Calm 3 Fog/Mist CLR 36 33     89%     29.94        
Oct 17 05:34 Calm 1.75 Fog/Mist CLR 36 33     89%     29.94        
Oct 17 04:53 Calm 9 Clear CLR 36 34     92%     29.95 29.95      
Oct 17 03:53 Calm 10 Clear CLR 37 34     89%     29.97 29.96      
Oct 17 02:53 Calm 10 Clear CLR 37 35     92%     29.98 29.98      
Oct 17 01:53 Calm 10 Clear CLR 38 36     92%     29.99 29.98      
Oct 16 23:53 Calm 10 Clear CLR 45 38     76%     30.01 30.01      
Oct 16 22:53 SW 3 10 Clear CLR 46 38     73% 45   30.02 30.02      
Oct 16 21:53 Calm 10 Clear CLR 41 37     86%     30.02 30.02      
Oct 16 20:53 Calm 10 Clear CLR 43 38     82%     30.02 30.01      
Oct 16 19:53 Calm 10 Clear   48 36     63%     30.01 30      
Oct 16 18:53 WSW 6 10 Clear CLR 51 36     56%     30.01 30.01      
Oct 16 17:53 WSW 6 10 Clear CLR 54 36     50%     29.99 29.98      
Oct 16 16:53 WSW 7 10 Clear CLR 58 34     40%     29.98 29.97      
Oct 16 15:53 W 11 10 Clear CLR 59 32     36%     29.98 29.98      
Oct 16 14:53 WNW 13 10 Clear CLR 60 33     36%     29.98 29.98      
Oct 16 13:53 W 11 10 Clear CLR 60 33     36%     29.99 29.98      
Oct 16 12:53 W 13 10 Clear CLR 58 32     37%     30.01 30.01      
Oct 16 11:53 WSW 14 10 Clear CLR 57        %     30.03 30.03      
Oct 16 10:53 W 17 10 Clear CLR 54        %     30.04 30.03      
Oct 16 09:53 W 13 10 Clear CLR 52        %     30.04 30.04      
Oct 16 08:53 W 14 10 Clear CLR 50        %     30.03 30.03      
Oct 16 07:53 W 9 10 Clear CLR 47        % 43   30.01 30.01     0
Oct 16 06:53 W 11 10 Clear CLR 47        % 42   29.99 29.98      
Oct 16 05:53 WNW 11 10 Clear CLR 48        % 43   29.96 29.96      
Oct 16 04:53 W 13 10 Clear CLR 51        %     29.92 29.92 0 0  
Oct 16 03:53   10 Clear CLR 54        %     29.87 29.86      
Oct 16 02:53 WNW 17 10 Mostly Clear FEW100 56        %     29.83 29.83 0    
Oct 16 01:53 W 14 10 Light Rain FEW070 OVC095 57        %     29.81 29.8 0   0
Oct 16 01:05   10 Light Rain FEW015 SCT022 OVC039 59        %     29.78   0    
Oct 16 00:53   10 Light Rain SCT017 BKN023 OVC035 61        %     29.76 29.76 0    
Oct 16 00:42   8 Light Rain SCT015 BKN023 OVC055 62        %     29.75   0    
Oct 16 00:32   6 Light Rain FEW018 BKN024 OVC055 68        %     29.74   0    
Oct 15 23:53 SW 21 7 Light Rain SCT026 BKN036 OVC070 70        %     29.71 29.7 0    
Oct 15 23:26 SW 20 10 Cloudy and Windy SCT025 BKN035 OVC041 71        %     29.71        
Oct 15 22:53 SW 14 10 Cloudy OVC027 71        %     29.73 29.72   0  
Oct 15 21:53 SW 16 10 Cloudy BKN022 OVC029 70        %     29.75 29.75      
Oct 15 20:53 SSW 11 10 Cloudy BKN020 OVC027 68        %     29.77 29.77 0    
Oct 15 19:53 SSW 10 10 Cloudy BKN018 OVC023 68 63     84%     29.79 29.78      
Oct 15 18:53 SSW 16 10 Cloudy FEW016 OVC023 68 63     84%     29.81 29.81      
Oct 15 18:31 SSW 13 10 Cloudy FEW013 OVC023 68 63     84%     29.83        
Oct 15 17:53 SSW 14 10 Cloudy OVC012 67 63     87%     29.85 29.85      
Oct 15 16:53 S 11 10 Cloudy OVC011 66 62     87%     29.89 29.88      
Oct 15 15:53 S 15 10 Cloudy OVC011 65        %     29.91 29.91      
Oct 15 15:19 S 11 10 Cloudy OVC013 64 59     84%     29.93        
Oct 15 14:53 S 10 10 Cloudy BKN019 OVC024 64        %     29.95 29.95      
Oct 15 14:39 S 15 10 Cloudy BKN022 OVC032 65        %     29.95        
Oct 15 13:53 S 7 10 Cloudy SCT025 OVC032 63        %     30 30     0
Oct 15 13:46 S 8 10 Cloudy BKN025 OVC032 62        %     30        
Oct 15 12:53 S 6 10 Cloudy OVC040 61        %     30.03 30.03      
Oct 15 11:53 SE 5 10 Cloudy FEW028 BKN039 OVC047 58        %     30.08 30.08      
Oct 15 10:53 SE 5 10 Cloudy BKN038 OVC060 52        %     30.12 30.12 0 0  
Oct 15 09:53 Calm 10 Cloudy OVC038 50        %     30.14 30.14 0    
Oct 15 08:53 Calm 9 Cloudy SCT032 OVC060 47        %     30.16 30.16      
Oct 15 07:53 Calm 10 Cloudy OVC032 43        %     30.18 30.18      
Oct 15 06:53 Calm 8 Clear   38        %     30.19 30.19      
Oct 15 05:53 Calm 8 Mostly Clear FEW065 38        %     30.19 30.19      
Oct 15 05:33 Calm 4 Fog/Mist FEW002 37        %     30.19        
Oct 15 05:23 Calm 1.5 Fog/Mist FEW002 37        %     30.19        
Oct 15 05:20 Calm 3 Fog/Mist FEW002 37        %     30.19        
Oct 15 05:11 Calm 2.5 Fog/Mist FEW001 38        %     30.19        
Oct 15 04:57 Calm 3 Fog/Mist SCT001 38        %     30.19        
Oct 15 04:51 Calm 2 Fog/Mist BKN001 38        %     30.19 30.19      
Oct 15 04:50 Calm 2 Fog/Mist BKN001 37        %     30.19        
Oct 15 04:28 Calm 0.75 Fog/Mist VV001 38        %     30.19        
Oct 15 04:17 Calm 2.5 Fog/Mist BKN002 38        %     30.19        
Oct 15 04:12 Calm 6 Fog/Mist SCT002 38        %     30.2        
Oct 15 03:53 Calm 3 Fog/Mist CLR 37        %     30.2 30.2      
Oct 15 03:50 Calm 1 Fog/Mist CLR 37        %     30.2        
Oct 15 02:53 Calm 0.25 Fog VV001 38        %     30.21 30.2      
Oct 15 02:32 Calm 0.75 Fog/Mist VV001 38        %     30.21        
Oct 15 02:23 Calm 1.75 Fog/Mist FEW002 38        %     30.21        
Oct 15 02:01 Calm 3 Fog/Mist FEW002 38        %     30.21        
Oct 15 01:59 Calm 1.5 Fog/Mist FEW002 38        %     30.21        
Oct 15 01:53 Calm 0.5 Fog VV002 38        %     30.21 30.21      
Oct 15 01:31 Calm 0.5 Fog VV002 38        %     30.21        
Oct 15 01:17 Calm 1 Fog/Mist VV001 38        %     30.22        
Oct 15 01:11 Calm 2.5 Fog/Mist   40        %     30.22        
Oct 15 00:53 Calm 4 Fog/Mist   38        %     30.22 30.21      
Oct 15 00:48 Calm 3 Fog/Mist   39        %     30.22        
Oct 15 00:27 Calm 1.25 Fog/Mist SCT002 39        %     30.22        
Oct 14 23:53 Calm 0.5 Fog VV002 39        %     30.22 30.22      
Oct 14 23:29 Calm 0.75 Fog/Mist VV001 40        %     30.22        
Oct 14 23:22 Calm 1.75 Fog/Mist FEW002 39        %     30.22        
Oct 14 22:53 Calm 9 Clear CLR 40        %     30.22 30.22      
Oct 14 22:40 Calm 2.5 Fog/Mist FEW002 41        %     30.22        
Oct 14 22:25 Calm 0.25 Fog VV002 41        %     30.22        
Oct 14 22:17 Calm 1.5 Fog/Mist CLR 40        %     30.22        
Oct 14 21:53 Calm 5 Fog/Mist CLR 41        %     30.22 30.21      
Oct 14 21:35 Calm 3 Fog/Mist CLR 43        %     30.21        
Oct 14 21:31 Calm 0.75 Fog/Mist CLR 42        %     30.22        
Oct 14 21:22 Calm 1.5 Fog/Mist CLR 41        %     30.21        
Oct 14 20:53 Calm 9 Clear CLR 42        %     30.21 30.21      
Oct 14 19:53 Calm 10 Clear CLR 45        %     30.2 30.2      
Oct 14 18:53 Calm 10 Clear CLR 47        %     30.2 30.2      
Oct 14 17:53 SW 5 10 Clear CLR 55        %     30.18 30.18      
Oct 14 16:53 SSW 8 10 Clear CLR 58        %     30.18 30.18      
Oct 14 15:53 SW 10 10 Clear CLR 59        %     30.18 30.17      
Oct 14 14:53 W 11 10 Clear CLR 59 39     47%     30.18 30.18      
Oct 14 13:53 SW 11 10 Clear CLR 58 39     49%     30.18 30.18      
Oct 14 12:53 WSW 11 10 Clear CLR 56 38     51%     30.19 30.19      
Oct 14 11:53 WSW 10 10 Clear CLR 56 39     53%     30.19 30.19      
Oct 14 10:53 W 7 10 Clear CLR 54 42     64%     30.19 30.19      
Oct 14 09:53 W 7 10 Clear CLR 49 43     80% 46   30.2 30.19      
Oct 14 08:53 WSW 5 10 Clear CLR 47 42     83% 45   30.2 30.19      
Oct 14 07:53 Calm 10 Clear CLR 42 39     89%     30.17 30.17      
Oct 14 06:53 Calm 9 Clear CLR 37 35     92%     30.16 30.16      
Oct 14 05:53 Calm 10 Clear CLR 38 36     92%     30.14 30.14      
Oct 14 04:53 Calm 10 Clear CLR 39 36     89%     30.13 30.12      
Oct 14 03:53 WSW 5 10 Clear CLR 42 39     89% 39   30.1 30.1      
Oct 14 02:53 W 5 10 Clear CLR 43 40     89% 40   30.08 30.08      
Oct 14 01:53 WSW 5 10 Clear CLR 43 40     89% 40   30.07 30.07      
Oct 14 00:53 Calm 10 Clear CLR 40 38     93%     30.05 30.04      
Oct 13 23:53 Calm 10 Clear CLR 41 40     96%     30.03 30.03      
Oct 13 22:53 Calm 10 Clear CLR 44 42     93%     30.02 30.01      
Oct 13 21:53 WSW 6 10 Clear CLR 45 42     90% 42   30 30      
Oct 13 20:53 Calm 10 Mostly Clear FEW050 43 40     89%     29.97 29.97      
Oct 13 19:53 WSW 6 10 Clear CLR 47 43     86% 44   29.94 29.93      
Oct 13 18:53 Calm 10 Clear CLR 46 42     86%     29.9 29.9      
Oct 13 17:53 NW 5 10 Partly Cloudy SCT032 52 42     69%     29.88 29.88      
Oct 13 16:53 NNW 6 10 Mostly Cloudy FEW030 BKN041 BKN049 55 43     64%     29.85 29.84      
Oct 13 15:53 NW 8 10 Mostly Cloudy SCT025 BKN037 BKN044 54 43     66%     29.84 29.84      
Oct 13 14:53 WNW 10 10 Mostly Cloudy BKN016 BKN023 BKN030 53 45     74%     29.83 29.83      
Oct 13 13:53 W 9 10 Mostly Cloudy BKN012 BKN021 BKN032 51 46     83%     29.83 29.82 0   0
Oct 13 13:12 6 10 Light Rain FEW016 SCT027 OVC055 50 46     86%     29.84   0    
Oct 13 12:53 W 6 8 Light Rain SCT018 BKN025 OVC048 49 45     86% 46   29.84 29.83 0    
Oct 13 11:53 WNW 6 6 Light Rain FEW015 BKN026 OVC047 49 44     83% 46   29.84 29.84 0    
Oct 13 11:39 WNW 8 6 Light Rain SCT027 BKN038 OVC047 49 44     83% 45   29.84   0    
Oct 13 11:07 W 10 8 Light Rain SCT015 BKN026 OVC042 49 44     83% 45   29.83   0    
Oct 13 10:53 W 7 9 Light Rain FEW016 BKN044 OVC055 50 46     86%     29.83 29.83 0 0  
Oct 13 09:53 W 6 5 Light Rain OVC041 49 44     83% 46   29.82 29.81 0    
Oct 13 08:53 Calm 10 Cloudy SCT055 BKN070 OVC085 50 46     86%     29.79 29.79 0    
Oct 13 07:53 Calm 10 Cloudy SCT055 BKN095 OVC110 50 44     80%     29.79 29.79      
Oct 13 05:53 Calm 10 Mostly Clear FEW055 48 45     89%     29.75 29.75      
Oct 13 01:53 Calm 10 Clear CLR 46 44     93%     29.75 29.74      
Oct 12 18:53 W 7 10 Clear CLR 56 44     64%     29.62 29.61      
Oct 12 17:53 W 5 10 Clear CLR 60 44     55%     29.58 29.58      
Oct 12 16:53 NW 9 10 Clear CLR 64 44     48%     29.55 29.55      
Oct 12 12:53 NW 9 10 Cloudy FEW023 BKN030 OVC041 59 51     75%     29.51 29.5      
Oct 12 12:46 NW 13 10 Cloudy FEW023 BKN028 OVC041 59 50     72%     29.51        
Oct 12 12:06 NW 9 10 Cloudy SCT021 OVC040 59 53     81%     29.5        
Oct 12 11:53 NNW 9 10 Cloudy BKN020 OVC040 59 53     81%     29.5 29.5      
Oct 12 10:53 N 9 10 Cloudy BKN017 OVC039 58 55     90%     29.48 29.48 0 0  
Oct 12 10:49 NNW 9 10 Cloudy BKN017 OVC039 57 55     94%     29.5   0    
Oct 12 09:00 N 9 6 Light Rain and Fog/Mist FEW023 BKN100 OVC110 59 57     93%     29.45   0    
Oct 12 08:53 NNW 9 7 Light Rain OVC006 60 57     90%     29.47 29.46 0    
Oct 12 07:38 Calm 6 Light Rain and Fog/Mist BKN005 OVC055 60 59     96%     29.5   0    
Notice The following observation data may not be complete
Oct 12 06:03   2 Light Rain and Fog/Mist OVC003          %         0    
Oct 12 02:22 S 3 7 Light Rain OVC003 60 59     96%     29.54   0    
Oct 12 02:09 Calm 6 Light Rain and Fog/Mist OVC002 60 59     96%     29.53   0    
Notice The following observation data may not be complete
Oct 11 23:31   10 Cloudy OVC004          %         0    
Oct 11 22:53 Calm 10 Cloudy OVC005 60 59     96%     29.58 29.58 0 0  
Notice The following observation data may not be complete
Oct 11 22:29   10 Cloudy OVC005          %         0    
Oct 11 22:06 NNE 6 10 Light Rain OVC004 61 59     93%     29.57   0    
Oct 11 21:53 N 7 9 Light Rain OVC005 62 59     90%     29.59 29.58 0    
Oct 11 20:07 Calm 6 Light Rain and Fog/Mist BKN005 BKN015 OVC021 62 60     93%     29.58   0    
Oct 11 19:39 N 5 2.5 Rain and Fog/Mist SCT006 OVC015 62 60     93%     29.59   0    
Oct 11 17:53 Calm 10 Cloudy BKN027 OVC037 62 59     90%     29.6 29.59 0    
Notice The following observation data may not be complete
Oct 11 17:33   10 Cloudy FEW004 SCT022 OVC038          %         0    
Oct 11 17:25 N 9 7 Light Rain SCT004 BKN022 OVC040 62 60     93%     29.61   0    
Oct 11 17:18 N 13 3 Light Rain and Fog/Mist BKN004 BKN022 OVC029 62 60     93%     29.62   0    
Oct 11 17:14   1.25 Heavy Rain and Fog/Mist BKN004 BKN009 OVC020 62 60     93%     29.62   0    
Notice The following observation data may not be complete
Oct 11 14:29   3 Light Rain and Fog/Mist BKN009 BKN013 OVC019          %         0    
Oct 11 14:27 NNE 6 2.5 Light Rain and Fog/Mist BKN009 OVC014 66 63     90%     29.68   0    
Oct 11 13:53 NNE 7 10 Cloudy BKN020 OVC026 67 63     87%     29.7 29.7 0   0
Oct 11 13:19 N 7 10 Light Rain SCT022 BKN029 OVC046 68 63     84%     29.72   0    
Oct 11 12:53 N 7 10 Cloudy SCT022 BKN027 OVC045 70 64     81%     29.73 29.73      
May 15 06:53 S 6 3 Fog/Mist OVC003 59 57     93%     29.85 29.85      
May 15 04:53 S 5 9 Clear   57 54     89%     29.86 29.85      
May 14 23:53 S 5 10 Clear CLR 57 53     87%     29.9 29.9      
May 14 13:53 SSW 9 10 Partly Cloudy SCT035 70 53     55%     29.93 29.93      
May 14 06:19 SSE 5 10 Cloudy BKN007 OVC030 52 49     89%     30.02        
May 13 23:53 SSE 5 10 Clear CLR 50 47     89% 48   30.08 30.07      
May 13 13:53 NNE 6 10 Mostly Cloudy BKN021 BKN026 60 49     67%     30.18 30.18      
May 13 00:53 NNE 5 6 Fog/Mist OVC006 52 49     89%     30.11 30.11      
May 12 14:15 N 3 10 Cloudy BKN009 OVC013 53 50     89%     30.14        
May 11 20:53 SSE 3 10 Clear CLR 54 32     43%     30.07 30.07      
May 11 12:53   10 Clear CLR 68 35     30%     29.96 29.96      
Jun 12 05:53 Calm 10 Clear CLR 69 65     87%     29.96 29.96      
Jun 10 22:53 SSW 7 10 Clear   73 56     55%   73 29.99 29.99      
Jun 10 15:53 S 13 10 Clear CLR 83 55     38%   82 29.91 29.91      
Jun 08 08:53 Calm 10 Clear CLR 66 55     68%     30.04 30.04      
Jun 07 22:53 Calm 10 Clear CLR 52 50     93%     30.02 30.02      
Jun 07 11:53 NE 8 10 Cloudy OVC075 64 50     60%     29.96 29.96      
Jun 06 13:35 NNE 14 6 Light Rain and Fog/Mist SCT009 SCT018 OVC039 49 47     93% 44   29.83   0    
Jun 06 11:53 NE 11 1.25 Light Rain and Fog/Mist BKN007 OVC014 50 48     93% 46   29.84 29.83 0    
Notice The following observation data may not be complete
Jun 06 05:05   1.75 Fog/Mist OVC006          %              
Jun 05 21:53 ENE 9 2.5 Light Rain and Fog/Mist OVC006 54 53     97%     29.84 29.83 0    
Jun 05 18:53 ENE 8 1.75 Fog/Mist OVC006 55 53     93%     29.83 29.82